• In Netherlands
  • List of Countries
  • For 7 days
  • Water Temperature
  • Satellite Maps
  • Weather Map
  • Weather Widgets
  • user-avatar
    Login

    Hourly Weather Brest

    Today, 24 September, Sunday

    Time Temperature Precipitation Wind Pressure Humidity
    00:00 +14°C° 0 mm 3 mps 754 mmHg 83%
    01:00 +13°C° 0 mm 3 mps 754 mmHg 84%
    02:00 +13°C° 0 mm 3 mps 754 mmHg 87%
    03:00 +13°C° 0 mm 3 mps 754 mmHg 83%
    04:00 +12°C° 0 mm 4 mps 754 mmHg 79%
    05:00 +12°C° 0 mm 4 mps 754 mmHg 75%
    06:00 +12°C° 0 mm 4 mps 754 mmHg 75%
    07:00 +13°C° 0 mm 4 mps 754 mmHg 75%
    08:00 +13°C° 0 mm 4 mps 754 mmHg 78%
    09:00 +13°C° 0 mm 4 mps 754 mmHg 76%
    10:00 +14°C° 0 mm 4 mps 755 mmHg 75%
    11:00 +15°C° 0 mm 5 mps 755 mmHg 74%
    12:00 +15°C° 0.1 mm 5 mps 755 mmHg 73%
    13:00 +15°C° 0.1 mm 5 mps 755 mmHg 73%
    14:00 +16°C° 0.1 mm 5 mps 755 mmHg 73%
    15:00 +15°C° 0.3 mm 5 mps 755 mmHg 74%
    16:00 +15°C° 0.3 mm 5 mps 755 mmHg 76%
    17:00 +15°C° 0.3 mm 5 mps 755 mmHg 78%
    18:00 +14°C° 0.1 mm 4 mps 755 mmHg 78%
    19:00 +14°C° 0.1 mm 4 mps 756 mmHg 79%
    20:00 +13°C° 0.1 mm 4 mps 756 mmHg 79%
    21:00 +13°C° 0 mm 4 mps 756 mmHg 78%
    22:00 +13°C° 0 mm 4 mps 756 mmHg 77%
    23:00 +12°C° 0 mm 4 mps 756 mmHg 76%

    Tomorrow, 25 September, Monday

    Time Temperature Precipitation Wind Pressure Humidity
    00:00 +12°C° 0 mm 4 mps 756 mmHg 74%
    01:00 +12°C° 0 mm 4 mps 756 mmHg 73%
    02:00 +12°C° 0 mm 4 mps 756 mmHg 71%
    03:00 +12°C° 0 mm 4 mps 756 mmHg 72%
    04:00 +12°C° 0 mm 4 mps 756 mmHg 73%
    05:00 +11°C° 0 mm 4 mps 756 mmHg 74%
    06:00 +11°C° 0 mm 4 mps 756 mmHg 75%
    07:00 +12°C° 0 mm 5 mps 757 mmHg 75%
    08:00 +12°C° 0 mm 5 mps 757 mmHg 76%
    09:00 +13°C° 0 mm 5 mps 757 mmHg 74%
    10:00 +14°C° 0 mm 5 mps 757 mmHg 71%
    11:00 +16°C° 0 mm 5 mps 758 mmHg 69%
    12:00 +17°C° 0 mm 5 mps 758 mmHg 66%
    13:00 +19°C° 0 mm 5 mps 758 mmHg 62%
    14:00 +20°C° 0 mm 5 mps 758 mmHg 59%
    15:00 +19°C° 0.1 mm 5 mps 758 mmHg 62%
    16:00 +19°C° 0.1 mm 5 mps 758 mmHg 65%
    17:00 +17°C° 0.1 mm 5 mps 758 mmHg 68%
    18:00 +17°C° 0 mm 4 mps 758 mmHg 70%
    19:00 +15°C° 0 mm 4 mps 758 mmHg 73%
    20:00 +14°C° 0 mm 4 mps 759 mmHg 75%
    21:00 +14°C° 0 mm 4 mps 759 mmHg 74%
    22:00 +13°C° 0 mm 4 mps 759 mmHg 73%
    23:00 +13°C° 0 mm 4 mps 759 mmHg 72%

    Day after tomorrow, 26 September, Tuesday

    Time Temperature Precipitation Wind Pressure Humidity
    00:00 +13°C° 0 mm 4 mps 759 mmHg 73%
    01:00 +12°C° 0 mm 4 mps 759 mmHg 74%
    02:00 +12°C° 0 mm 4 mps 759 mmHg 76%
    03:00 +11°C° 0 mm 4 mps 759 mmHg 77%
    04:00 +11°C° 0 mm 4 mps 759 mmHg 78%
    05:00 +11°C° 0 mm 4 mps 760 mmHg 79%
    06:00 +11°C° 0 mm 4 mps 760 mmHg 78%
    07:00 +11°C° 0 mm 4 mps 760 mmHg 77%
    08:00 +12°C° 0 mm 5 mps 760 mmHg 76%
    09:00 +13°C° 0 mm 5 mps 760 mmHg 72%
    10:00 +15°C° 0 mm 5 mps 761 mmHg 67%
    11:00 +16°C° 0 mm 5 mps 761 mmHg 63%
    12:00 +17°C° 0 mm 5 mps 761 mmHg 59%
    13:00 +19°C° 0 mm 5 mps 761 mmHg 56%
    14:00 +20°C° 0 mm 5 mps 761 mmHg 53%
    15:00 +20°C° 0 mm 5 mps 761 mmHg 55%
    16:00 +19°C° 0 mm 4 mps 761 mmHg 58%
    17:00 +18°C° 0 mm 4 mps 761 mmHg 60%
    18:00 +17°C° 0 mm 4 mps 761 mmHg 61%
    19:00 +14°C° 0 mm 4 mps 761 mmHg 63%
    20:00 +13°C° 0 mm 4 mps 762 mmHg 64%
    21:00 +12°C° 0 mm 4 mps 762 mmHg 65%
    22:00 +12°C° 0 mm 4 mps 762 mmHg 65%
    23:00 +11°C° 0 mm 3 mps 762 mmHg 66%

    27 September, Wednesday

    Time Temperature Precipitation Wind Pressure Humidity
    00:00 +11°C° 0 mm 3 mps 762 mmHg 68%
    01:00 +10°C° 0 mm 3 mps 762 mmHg 70%
    02:00 +10°C° 0 mm 3 mps 762 mmHg 71%
    03:00 +10°C° 0 mm 3 mps 762 mmHg 73%
    04:00 +9°C° 0 mm 3 mps 762 mmHg 75%
    05:00 +8°C° 0 mm 4 mps 762 mmHg 77%
    06:00 +8°C° 0 mm 4 mps 763 mmHg 78%
    07:00 +8°C° 0 mm 4 mps 763 mmHg 78%
    08:00 +10°C° 0 mm 4 mps 763 mmHg 79%
    09:00 +10°C° 0 mm 5 mps 763 mmHg 75%
    10:00 +13°C° 0 mm 5 mps 764 mmHg 70%
    11:00 +14°C° 0 mm 5 mps 764 mmHg 66%
    12:00 +15°C° 0 mm 5 mps 764 mmHg 64%
    13:00 +16°C° 0 mm 5 mps 763 mmHg 62%
    14:00 +16°C° 0 mm 5 mps 763 mmHg 60%
    15:00 +16°C° 0 mm 5 mps 763 mmHg 61%
    16:00 +15°C° 0 mm 5 mps 763 mmHg 61%
    17:00 +15°C° 0 mm 4 mps 763 mmHg 62%
    18:00 +14°C° 0 mm 4 mps 764 mmHg 64%
    19:00 +12°C° 0 mm 4 mps 764 mmHg 66%
    20:00 +11°C° 0 mm 4 mps 764 mmHg 68%
    21:00 +11°C° 0 mm 4 mps 764 mmHg 69%
    22:00 +10°C° 0 mm 4 mps 764 mmHg 70%
    23:00 +10°C° 0 mm 3 mps 764 mmHg 71%

    28 September, Thursday

    Time Temperature Precipitation Wind Pressure Humidity
    00:00 +9°C° 0 mm 3 mps 764 mmHg 73%
    01:00 +9°C° 0 mm 3 mps 764 mmHg 75%
    02:00 +8°C° 0 mm 3 mps 764 mmHg 77%
    03:00 +8°C° 0 mm 3 mps 764 mmHg 78%
    04:00 +8°C° 0 mm 3 mps 764 mmHg 80%
    05:00 +7°C° 0 mm 3 mps 764 mmHg 81%
    06:00 +8°C° 0 mm 3 mps 764 mmHg 80%
    07:00 +8°C° 0 mm 3 mps 765 mmHg 78%
    08:00 +9°C° 0 mm 3 mps 765 mmHg 77%
    09:00 +10°C° 0 mm 4 mps 765 mmHg 71%
    10:00 +12°C° 0 mm 4 mps 765 mmHg 65%
    11:00 +14°C° 0 mm 4 mps 765 mmHg 60%
    12:00 +14°C° 0 mm 4 mps 764 mmHg 58%
    13:00 +15°C° 0 mm 4 mps 764 mmHg 56%
    14:00 +15°C° 0 mm 4 mps 764 mmHg 54%
    15:00 +15°C° 0 mm 4 mps 764 mmHg 57%
    16:00 +14°C° 0 mm 4 mps 764 mmHg 59%
    17:00 +14°C° 0 mm 3 mps 764 mmHg 62%
    18:00 +13°C° 0 mm 3 mps 764 mmHg 65%
    19:00 +11°C° 0 mm 3 mps 764 mmHg 69%
    20:00 +10°C° 0 mm 3 mps 764 mmHg 72%
    21:00 +9°C° 0 mm 3 mps 764 mmHg 73%
    22:00 +9°C° 0 mm 3 mps 764 mmHg 73%
    23:00 +8°C° 0 mm 3 mps 764 mmHg 73%

    29 September, Friday

    Time Temperature Precipitation Wind Pressure Humidity
    00:00 +8°C° 0 mm 3 mps 764 mmHg 74%
    01:00 +7°C° 0 mm 3 mps 764 mmHg 75%
    02:00 +6°C° 0 mm 2 mps 764 mmHg 76%
    03:00 +6°C° 0 mm 2 mps 764 mmHg 76%
    04:00 +6°C° 0 mm 2 mps 764 mmHg 77%
    05:00 +5°C° 0 mm 2 mps 764 mmHg 77%
    06:00 +5°C° 0 mm 3 mps 764 mmHg 75%
    07:00 +5°C° 0 mm 3 mps 764 mmHg 73%
    08:00 +5°C° 0 mm 3 mps 764 mmHg 70%
    09:00 +8°C° 0 mm 3 mps 764 mmHg 65%
    10:00 +10°C° 0 mm 3 mps 764 mmHg 59%
    11:00 +12°C° 0 mm 3 mps 764 mmHg 53%
    12:00 +12°C° 0 mm 3 mps 763 mmHg 51%
    13:00 +13°C° 0 mm 3 mps 763 mmHg 49%
    14:00 +13°C° 0 mm 3 mps 763 mmHg 47%
    15:00 +13°C° 0 mm 3 mps 762 mmHg 50%
    16:00 +13°C° 0 mm 3 mps 762 mmHg 53%
    17:00 +13°C° 0 mm 2 mps 761 mmHg 56%
    18:00 +12°C° 0 mm 2 mps 761 mmHg 59%
    19:00 +9°C° 0 mm 2 mps 761 mmHg 63%
    20:00 +8°C° 0 mm 2 mps 761 mmHg 67%
    21:00 +8°C° 0 mm 2 mps 761 mmHg 69%
    22:00 +7°C° 0 mm 2 mps 761 mmHg 71%
    23:00 +7°C° 0 mm 2 mps 761 mmHg 73%
    Show more